This demonstration page uses our WeatherBlox Daily Observations layout. Learn more.

Left ArrowRight Arrow

53.62937, 11.41316

Hourly Observations for March 14, 2021

Temp ( °F °C ) Dew Point ( °F °C ) Humidity (%) Winds ( mph kmh ) Pressure ( in mb ) Visibility ( mi km ) Precip ( " mm )
8:20 am 08:20 Mostly Cloudy 39 4 34 1 81 81 WSW 7 11 29.50 999 30 48 N/A
8:50 am 08:50 Mostly Cloudy 41 5 36 2 81 81 VRB 6 9 29.53 1000 30 48 N/A
9:20 am 09:20 Mostly Cloudy 41 5 36 2 81 81 VRB 7 11 29.56 1001 30 48 N/A
9:50 am 09:50 Mostly Cloudy 41 5 36 2 81 81 WSW 8 13 29.56 1001 30 48 N/A
10:20 am 10:20 Mostly Cloudy 43 6 36 2 76 76 W 7 11 29.59 1002 30 48 N/A
10:50 am 10:50 Partly Cloudy 45 7 37 3 76 76 WSW 8 13 29.59 1002 30 48 N/A
11:20 am 11:20 Partly Cloudy 45 7 37 3 76 76 WSW 9 15 29.62 1003 30 48 N/A
11:50 am 11:50 Partly Cloudy 45 7 37 3 76 76 WSW 10 17 29.62 1003 30 48 N/A
12:20 pm 12:20 Partly Cloudy 46 8 36 2 66 66 WSW 12 19 29.62 1003 30 48 N/A
12:50 pm 12:50 Partly Cloudy with Showers Nearby 48 9 37 3 66 66 WSW 10 17 29.62 1003 30 48 N/A
1:20 pm 13:20 Partly Cloudy with Showers Nearby 45 7 37 3 76 76 WSW 14 22 29.62 1003 30 48 N/A
1:50 pm 13:50 Partly Cloudy with Showers Nearby 48 9 36 2 62 62 WSW 13 20 29.62 1003 30 48 N/A
2:20 pm 14:20 Mostly Cloudy 48 9 36 2 62 62 WSW 13 20 29.62 1003 30 48 N/A
2:50 pm 14:50 Partly Cloudy with Showers Nearby 46 8 36 2 66 66 WSW 12 19 29.65 1004 30 48 N/A
3:20 pm 15:20 Partly Cloudy with Showers Nearby 46 8 34 1 62 62 WSW 12 19 29.65 1004 30 48 N/A
3:50 pm 15:50 Partly Cloudy 46 8 34 1 62 62 WSW 12 19 29.65 1004 30 48 N/A
4:20 pm 16:20 Mostly Sunny 48 9 36 2 62 62 WSW 12 19 29.65 1004 30 48 N/A
4:50 pm 16:50 Partly Cloudy with Showers Nearby 46 8 34 1 62 62 WSW 13 20 29.65 1004 30 48 N/A
5:20 pm 17:20 Partly Cloudy with Showers Nearby 46 8 32 0 57 57 WSW 12 19 29.65 1004 30 48 N/A
5:50 pm 17:50 Mostly Sunny 45 7 32 0 61 61 WSW 8 13 29.68 1005 30 48 N/A
6:20 pm 18:20 Mostly Clear 45 7 36 2 71 71 WSW 12 19 29.68 1005 30 48 N/A
6:50 pm 18:50 Partly Cloudy 43 6 36 2 76 76 WSW 12 19 29.68 1005 30 48 N/A
7:20 pm 19:20 Partly Cloudy 41 5 36 2 81 81 SW 12 19 29.68 1005 30 48 N/A
7:50 pm 19:50 Partly Cloudy with Light Showers 41 5 36 2 81 81 WSW 9 15 29.71 1006 6 9 N/A

Powered by AerisWeather